x

Norfolk, Va (44059) Weather Station

4:50pm - Thu 5th Mar 2015 All times are EST. -5 hours from GMT.

  • Wind
    16mph, 20mph gusts
  • Air Temp 33°f
  • Sea Pressure 1018.9mb
  • Norfolk, Va
  • Norfolk, Va

More Historic Weather Station data

Upgrade to MSW Pro to gain access to the past 30 days of data for over 8000 Wavebouys and Weather Stations around the globe.

Join Pro

Comparision Forecast

View Surf forecast
   
Thu 03/05 4:50pm 16 20 mph 1018.9mb - 33f
4:40pm 16 22 mph 1018.9mb - 33f
4:30pm 16 20 mph 1019mb - 33f
4:20pm 16 20 mph 1018.9mb - 33f
4:10pm 16 22 mph 1018.5mb - 33f
4:00pm 18 25 mph 1018.9mb 38f 34f
3:50pm 20 31 mph 1019.1mb - 34f
3:40pm 18 25 mph 1018.6mb - 34f
3:30pm 18 25 mph 1018.5mb - 34f
3:20pm 20 31 mph 1018.6mb - 34f
3:10pm 18 27 mph 1018.7mb - 34f
3:00pm 18 25 mph 1018.6mb 38f 34f
2:50pm 20 31 mph 1018.6mb - 34f
2:40pm 20 25 mph 1018.4mb - 34f
2:30pm 18 27 mph 1018.5mb - 34f
2:20pm 18 27 mph 1018mb - 34f
2:10pm 20 27 mph 1017.8mb - 33f
2:00pm 18 25 mph 1017.2mb 38f 33f
1:50pm 16 22 mph 1016.9mb - 34f
1:40pm 16 22 mph 1016.6mb - 34f
1:30pm 18 27 mph 1016.7mb - 34f
1:20pm 18 25 mph 1016.8mb - 34f
1:10pm 16 25 mph 1017mb - 34f
1:00pm 18 27 mph 1017.6mb 39f 34f
12:50pm 16 25 mph 1017.9mb - 34f
12:40pm 18 22 mph 1017.9mb - 34f
12:30pm 16 25 mph 1017.9mb - 34f
12:20pm 18 22 mph 1017.9mb - 34f
12:10pm 18 29 mph 1017.8mb - 35f
12:00pm 13 22 mph 1017mb 38f 35f
11:50am 16 22 mph 1016.9mb - 35f
11:40am 18 27 mph 1017.4mb - 35f
11:30am 11 27 mph 1017.8mb - 35f
11:20am 16 22 mph 1017.3mb - 35f
11:10am 18 25 mph 1016.9mb - 35f
11:00am 18 25 mph 1017.2mb 39f 35f
10:50am 18 29 mph 1017mb - 35f
10:40am 16 22 mph 1017.1mb - 35f
10:30am 18 27 mph 1017.1mb - 35f
10:20am 16 22 mph 1017.3mb - 35f
10:10am 18 27 mph 1017.1mb - 36f
10:00am 16 25 mph 1017mb 39f 36f
9:50am 16 22 mph 1016.9mb - 37f
9:40am 18 27 mph 1016.5mb - 37f
9:30am 16 20 mph 1016.3mb - 37f
9:20am 13 22 mph 1016mb - 37f
9:10am 16 20 mph 1015.5mb - 37f
9:00am 16 22 mph 1016mb 39f 37f
8:50am 16 25 mph 1016.5mb - 37f
8:40am 13 25 mph 1016.1mb - 38f
8:30am 18 27 mph 1015.9mb - 38f
8:20am 18 25 mph 1015.9mb - 38f
8:10am 18 25 mph 1015.9mb - 38f
8:00am 16 22 mph 1015.7mb 39f 38f
7:50am 16 25 mph 1015.3mb - 38f
7:40am 13 20 mph 1014.9mb - 39f
7:30am 13 20 mph 1014.7mb - 39f
7:20am 11 20 mph 1014.9mb - 40f
7:10am 13 20 mph 1014.7mb - 40f
7:00am 13 18 mph 1014.5mb 39f 40f
6:50am 13 20 mph 1014.4mb - 41f
6:40am 13 18 mph 1014.5mb - 42f
6:30am 13 18 mph 1014.4mb - 42f
6:20am 11 16 mph 1014.1mb - 42f
6:10am 13 20 mph 1014mb - 42f
6:00am 11 16 mph 1014.1mb 39f 42f
5:50am 13 20 mph 1013.6mb - 42f
5:40am 13 25 mph 1013.3mb - 43f
5:30am 11 20 mph 1013.4mb - 43f
5:20am 11 18 mph 1013mb - 43f
5:10am 11 16 mph 1012.8mb - 43f
5:00am 9 13 mph 1013mb 39f 43f
4:50am 11 18 mph 1012.5mb - 43f
4:40am 11 18 mph 1012.3mb - 44f
4:30am 9 13 mph 1012.3mb - 44f
4:20am 11 20 mph 1012.3mb - 44f
4:10am 11 18 mph 1012.1mb - 44f
4:00am 9 16 mph 1012mb 39f 45f
3:50am 11 20 mph 1011.7mb - 45f
3:40am 11 20 mph 1011.7mb - 45f
3:30am 11 18 mph 1011.7mb - 46f
3:20am 13 20 mph 1011.8mb - 47f
3:10am 9 16 mph 1011.8mb - 48f
3:00am 4 7 mph 1011.5mb 39f 48f
2:50am 4 7 mph 1011.6mb - 47f
2:40am 2
mph
1011.5mb - 47f
2:30am 2 4 mph 1011.5mb - 47f
2:20am 4
mph
1011.6mb - 47f
2:10am 2
mph
1011.5mb - 48f
2:00am 2
mph
1011.5mb 38f 48f
1:50am 2
mph
1011.5mb - 48f
1:40am  -  2 mph 1011.5mb - 47f
1:30am 2
mph
1011.5mb - 47f
1:20am 2
mph
1011.4mb - 47f
1:10am 4
mph
1011.4mb - 47f
1:00am 4 7 mph 1011.3mb 39f 47f
12:50am 4 7 mph 1011.3mb - 47f
12:40am 4
mph
1011.3mb - 47f
12:30am 2 4 mph 1011.2mb - 46f
12:20am 4
mph
1011.3mb - 47f
12:10am 2 4 mph 1011.2mb - 47f
12:00am 2 4 mph 1011.1mb 38f 46f
Wed 03/04 11:50pm 4
mph
1011.1mb - 46f
11:40pm 4 7 mph 1011.2mb - 47f
11:30pm 2 4 mph 1011mb - 47f
11:20pm  -  2 mph 1011mb - 47f
11:10pm  -  2 mph 1010.9mb - 47f
11:00pm 2 4 mph 1011mb 39f 48f
10:50pm 4 7 mph 1011.2mb - 48f
10:40pm 4 7 mph 1011.3mb - 47f
10:30pm 7 9 mph 1011.2mb - 47f
10:20pm 7 9 mph 1011.2mb - 46f
10:10pm 7 9 mph 1011mb - 45f
10:00pm 7 11 mph 1010.8mb 39f 46f
9:50pm 7 9 mph 1010.5mb - 48f
9:40pm 7
mph
1010.4mb - 49f
9:30pm 4 7 mph 1010.2mb - 51f
9:20pm 2 4 mph 1010.1mb - 52f
9:10pm 4
mph
1010.1mb - 53f
9:00pm 4
mph
1010.1mb 40f 54f
8:50pm 2 4 mph 1010mb - 54f
8:40pm 2 4 mph 1010.1mb - 54f
8:30pm 2 7 mph 1010.1mb - 55f
8:20pm 2 4 mph 1010mb - 56f
8:10pm 2 4 mph 1010.1mb - 55f
8:00pm 2 4 mph 1010mb 40f 55f
7:50pm 2 4 mph 1009.9mb - 56f
7:40pm  -  4 mph 1010mb - 56f
7:30pm  -  4 mph 1009.9mb - 57f
7:20pm 2 4 mph 1009.9mb - 58f
7:10pm 4 7 mph 1010mb - 58f
7:00pm 4 7 mph 1010.1mb 40f 58f
6:50pm 7 9 mph 1010.2mb - 60f
6:40pm 4 7 mph 1010.1mb - 64f
6:30pm 2 4 mph 1010mb - 64f
6:20pm 4
mph
1010.1mb - 64f
6:10pm 4 7 mph 1010.2mb - 65f
6:00pm 2 7 mph 1010.1mb 39f 69f
5:50pm 2 9 mph 1009.9mb - 70f
5:40pm 2 4 mph 1009.8mb - 70f
5:30pm 4 9 mph 1009.9mb - 70f
5:20pm 7 11 mph 1009.9mb - 70f
5:10pm 4 9 mph 1009.8mb - 70f
5:00pm 7 13 mph 1009.8mb 38f 70f
4:50pm 9 13 mph 1010mb - 70f
4:40pm 9 16 mph 1010.2mb - 69f
4:30pm 11 16 mph 1010.3mb - 69f
4:20pm 11 18 mph 1010.2mb - 69f
4:10pm 13 18 mph 1010.3mb - 69f
4:00pm 11 16 mph 1010.4mb 39f 69f
3:50pm 13 22 mph 1010.6mb - 68f
3:40pm 9 18 mph 1010.8mb - 68f
3:30pm 11 16 mph 1010.8mb - 67f
3:20pm 9 13 mph 1010.9mb - 66f
3:10pm 9 13 mph 1011mb - 66f
3:00pm 9 16 mph 1011.1mb 39f 65f
2:50pm 9 13 mph 1011.3mb - 65f
2:40pm 11 18 mph 1011.4mb - 64f
2:30pm 11 20 mph 1011.6mb - 64f
2:20pm 13 18 mph 1011.8mb - 63f
2:10pm 11 18 mph 1012mb - 62f
2:00pm 11 18 mph 1012.2mb 38f 62f
1:50pm 9 16 mph 1012.4mb - 61f
1:40pm 9 16 mph 1012.6mb - 60f
1:30pm 11 16 mph 1012.6mb - 60f
1:20pm 9 16 mph 1012.8mb - 59f
1:10pm 11 16 mph 1012.9mb - 59f
1:00pm 9 13 mph 1012.9mb 38f 58f
12:50pm 9 16 mph 1013.1mb - 58f
12:40pm 9 13 mph 1013.4mb - 58f
12:30pm 7 11 mph 1013.4mb - 58f
12:20pm 11 18 mph 1013.7mb - 58f
12:10pm 9 16 mph 1013.8mb - 57f
12:00pm 9 13 mph 1013.9mb 37f 57f
11:50am 7 16 mph 1014mb - 57f
11:40am 9 13 mph 1014.1mb - 56f
11:30am 9 16 mph 1014.1mb - 56f
11:20am 9 13 mph 1014.1mb - 56f
11:10am 7 11 mph 1014.1mb - 56f
11:00am 9 16 mph 1014.2mb 37f 56f
10:50am 9 13 mph 1014.1mb - 55f
10:40am 11 18 mph 1014.1mb - 55f
10:30am 9 16 mph 1014.1mb - 55f
10:20am 9 13 mph 1014mb - 54f
10:10am 9 16 mph 1014mb - 54f
10:00am 9 16 mph 1014.2mb 37f 53f
9:50am 9 18 mph 1014.1mb - 53f
9:40am 9 13 mph 1014.1mb - 52f
9:30am 9 16 mph 1014.1mb - 52f
9:20am 9 18 mph 1014mb - 52f
9:10am 9 13 mph 1013.9mb - 52f
9:00am 11 16 mph 1014mb 37f 52f
8:50am 11 18 mph 1013.8mb - 51f
8:40am 11 22 mph 1013.6mb - 51f
8:30am 11 18 mph 1013.6mb - 51f
8:20am 11 18 mph 1013.7mb - 51f
8:10am 11 18 mph 1013.7mb - 51f
8:00am 11 18 mph 1013.6mb 37f 51f
7:50am 13 25 mph 1013.6mb - 51f
7:40am 13 20 mph 1013.4mb - 51f
7:30am 11 22 mph 1013.1mb - 51f
7:20am 13 22 mph 1013mb - 51f
7:10am 13 25 mph 1013.1mb - 51f
7:00am 13 25 mph 1013.3mb 37f 50f
6:50am 13 22 mph 1013.1mb - 50f
6:40am 16 22 mph 1013.1mb - 49f
6:30am 13 20 mph 1013.1mb - 49f
6:20am 13 18 mph 1013.2mb - 48f
6:10am 13 20 mph 1013.3mb - 48f
6:00am 13 22 mph 1013.3mb 37f 47f
5:50am 13 20 mph 1013.3mb - 47f
5:40am 13 18 mph 1013.3mb - 47f
5:30am 13 20 mph 1013.2mb - 47f
5:20am 13 22 mph 1013.3mb - 47f
5:10am 11 20 mph 1013.3mb - 46f
5:00am 9 16 mph 1013mb 36f 46f
4:50am 13 18 mph 1013mb - 46f
4:40am 13 18 mph 1013mb - 46f
4:30am 11 18 mph 1012.9mb - 45f
4:20am 13 18 mph 1013mb - 45f
4:10am 11 16 mph 1013.1mb - 45f
4:00am 13 20 mph 1012.9mb 36f 45f
3:50am 11 18 mph 1012.9mb - 44f
3:40am 13 25 mph 1013.2mb - 44f
3:30am 11 18 mph 1013.2mb - 44f
3:20am 11 16 mph 1013mb - 43f
3:10am 11 20 mph 1013mb - 43f
3:00am 13 20 mph 1013.2mb 36f 43f
2:50am 11 18 mph 1013.4mb - 43f
2:40am 11 16 mph 1013.7mb - 43f
2:30am 11 18 mph 1014mb - 44f
2:20am 9 18 mph 1014.2mb - 44f
2:10am 11 16 mph 1014.3mb - 44f
2:00am 9 13 mph 1014.4mb 36f 44f
1:50am 9 16 mph 1014.6mb - 44f
1:40am 11 16 mph 1014.6mb - 44f
1:30am 9 16 mph 1014.7mb - 43f
1:20am 9 13 mph 1014.8mb - 43f
1:10am 7 11 mph 1014.8mb - 43f
1:00am 7 13 mph 1014.9mb 36f 42f
12:50am 7 11 mph 1015.1mb - 42f
12:40am 7 11 mph 1015.2mb - 42f
12:30am 9 13 mph 1015.2mb - 42f
12:20am 7 9 mph 1015.5mb - 42f
12:10am 7 16 mph 1015.5mb - 42f
12:00am 9 16 mph 1015.5mb 36f 43f
Tue 03/03 11:50pm 7 9 mph 1015.8mb - 43f
11:40pm 7 9 mph 1016.1mb - 43f
11:30pm 7 11 mph 1016mb - 43f
11:20pm 7 9 mph 1016.1mb - 42f
11:10pm 9 16 mph 1016.2mb - 43f
11:00pm 9 13 mph 1016.1mb 36f 43f
10:50pm 9 11 mph 1016.2mb - 43f
10:40pm 11 13 mph 1016.3mb - 43f
10:30pm 9 13 mph 1016.9mb - 43f
10:20pm 7 11 mph 1017.3mb - 43f
10:10pm 7 11 mph 1017.4mb - 43f
10:00pm 7 9 mph 1017.5mb 36f 43f
9:50pm 4 9 mph 1017.7mb - 43f
9:40pm 7 11 mph 1017.8mb - 43f
9:30pm 7 9 mph 1017.9mb - 43f
9:20pm 7 11 mph 1018mb - 43f
9:10pm 9 11 mph 1017.9mb - 42f
9:00pm 9 11 mph 1018mb 36f 42f
8:50pm 9 13 mph 1018mb - 42f
8:40pm 9 13 mph 1018.1mb - 42f
8:30pm 9 11 mph 1018.4mb - 42f
8:20pm 4 9 mph 1018.9mb - 42f
8:10pm 4 9 mph 1018.8mb - 42f
8:00pm 4 7 mph 1018.9mb 37f 42f
7:50pm 4 9 mph 1019.1mb - 42f
7:40pm 4 9 mph 1019.3mb - 42f
7:30pm 7 11 mph 1019.2mb - 42f
7:20pm 7 11 mph 1019mb - 42f
7:10pm 7 11 mph 1019.3mb - 42f
7:00pm 7 9 mph 1019.9mb 37f 42f
6:50pm 4 9 mph 1020.2mb - 42f
6:40pm 7 9 mph 1020.1mb - 42f
6:30pm 7 9 mph 1020.1mb - 42f
6:20pm 4 7 mph 1020.4mb - 42f
6:10pm 4 7 mph 1020.6mb - 42f
6:00pm 4
mph
1020.8mb 37f 42f
5:50pm 4 7 mph 1021mb - 42f
5:40pm 4 7 mph 1020.9mb - 42f
5:30pm 4 7 mph 1021mb - 42f
5:20pm 7 9 mph 1020.6mb - 42f
5:10pm 7 11 mph 1020.6mb - 42f
5:00pm 7 9 mph 1020.7mb 36f 42f
4:50pm 7 9 mph 1020.9mb - 42f
4:40pm 4 7 mph 1021.2mb - 42f
4:30pm 7 9 mph 1021.2mb - 42f
4:20pm 7 11 mph 1021.4mb - 42f
4:10pm 7 9 mph 1021.6mb - 42f
4:00pm 7 9 mph 1021.9mb 36f 42f
3:50pm 7 9 mph 1022.2mb - 42f
3:40pm 4 9 mph 1022.4mb - 41f
3:30pm 4 9 mph 1022.5mb - 41f
3:20pm 4 9 mph 1022.9mb - 41f
3:10pm 7 9 mph 1023.4mb - 41f
3:00pm 2 7 mph 1023.7mb 36f 40f
2:50pm 2 4 mph 1023.8mb - 40f
2:40pm 2 4 mph 1024mb - 40f
2:30pm 2 4 mph 1024.2mb - 40f
2:20pm 4 7 mph 1024.4mb - 40f
2:10pm 4 7 mph 1024.5mb - 39f
2:00pm 7 11 mph 1024.6mb 36f 39f
1:50pm 7 9 mph 1024.6mb - 39f
1:40pm 7 9 mph 1024.9mb - 38f
1:30pm 7 9 mph 1025.3mb - 38f
1:20pm 7 9 mph 1025.8mb - 38f
1:10pm 4 9 mph 1026.2mb - 38f
1:00pm 4 9 mph 1026.5mb 36f 38f
12:50pm 7
mph
1026.8mb - 38f
12:40pm 7 9 mph 1027.1mb - 38f
12:30pm 7 9 mph 1027.4mb - 38f
12:20pm 7 9 mph 1027.7mb - 37f
12:10pm 4 7 mph 1027.8mb - 37f
12:00pm 4 9 mph 1027.8mb 36f 37f
11:50am 4 7 mph 1028.2mb - 37f
11:40am 4 7 mph 1028.5mb - 37f
11:30am 2 4 mph 1029mb - 37f
11:20am  -  2 mph 1029.2mb - 37f
11:10am  -  2 mph 1029.2mb - 37f
11:00am  -  2 mph 1029.4mb 36f 36f
10:50am 4 7 mph 1029.2mb - 35f
10:40am 2 7 mph 1029.1mb - 35f
10:30am 7 11 mph 1029.1mb - 35f
10:20am 7 9 mph 1029.7mb - 35f
10:10am 7 11 mph 1030mb - 34f
10:00am 4 9 mph 1030mb 36f 34f
9:50am 4 9 mph 1030.4mb - 34f
9:40am 7 9 mph 1030.3mb - 34f
9:30am 4 11 mph 1030.3mb - 34f
9:20am 7 11 mph 1029.8mb - 34f
9:10am 9 13 mph 1029.8mb - 33f
9:00am 7 11 mph 1029.8mb 35f 33f
8:50am 9 11 mph 1030.1mb - 33f
8:40am 7 11 mph 1030mb - 33f
8:30am 7 13 mph 1029.9mb - 33f
8:20am 7 9 mph 1029.9mb - 33f
8:10am 7 9 mph 1030.4mb - 33f
8:00am 7 9 mph 1030.4mb 35f 33f
7:50am 7 9 mph 1030mb - 32f
7:40am 7 9 mph 1029.5mb - 32f
7:30am 4 9 mph 1029.2mb - 32f
7:20am 4 9 mph 1029.1mb - 32f
7:10am 4 7 mph 1029mb - 32f
7:00am 7 9 mph 1029mb 35f 32f
6:50am 4 7 mph 1028.9mb - 32f
6:40am 4 7 mph 1029mb - 31f
6:30am 4 9 mph 1029.1mb - 31f
6:20am 4 7 mph 1029mb - 31f
6:10am 4 7 mph 1029mb - 32f
6:00am 4 9 mph 1028.7mb 35f 32f
5:50am 4 7 mph 1028.7mb - 32f
5:40am 4 7 mph 1028.8mb - 32f
5:30am 4 7 mph 1029mb - 32f
5:20am 4 7 mph 1028.9mb - 32f
5:10am 4 7 mph 1029mb - 32f
5:00am 4 7 mph 1029mb 35f 32f
4:50am 4 7 mph 1029.1mb - 32f
4:40am 4 7 mph 1028.9mb - 32f
4:30am 4 7 mph 1028.9mb - 32f
4:20am 4 9 mph 1028.7mb - 33f
4:10am 4 7 mph 1028.6mb - 33f
4:00am 4 7 mph 1028.5mb 35f 33f
3:50am 4 9 mph 1028.3mb - 33f
3:40am 7 11 mph 1028.2mb - 33f
3:30am 9 13 mph 1028.2mb - 33f
3:20am 9 13 mph 1028mb - 33f
3:10am 9 16 mph 1028.1mb - 33f
3:00am 9 11 mph 1028.2mb 35f 34f
2:50am 9 13 mph 1028.3mb - 34f
2:40am 9 16 mph 1028.2mb - 34f
2:30am 9 16 mph 1028.3mb - 34f
2:20am 11 16 mph 1028.3mb - 34f
2:10am 11 16 mph 1028.6mb - 34f
2:00am 11 16 mph 1028.8mb 35f 35f
1:50am 9 13 mph 1028.8mb - 35f
1:40am 9 13 mph 1028.8mb - 35f
1:30am 9 13 mph 1028.7mb - 35f
1:20am 9 13 mph 1028.7mb - 35f
1:10am 9 11 mph 1028.8mb - 35f
1:00am 7 9 mph 1029mb 36f 35f
12:50am 7 9 mph 1028.9mb - 35f
12:40am 7 11 mph 1028.7mb - 36f
12:30am 7 11 mph 1028.8mb - 36f
12:20am 11 16 mph 1028.7mb - 36f
12:10am 11 16 mph 1028.9mb - 36f
12:00am 9 11 mph 1028.9mb 36f 36f
Mon 03/02 11:50pm 9 13 mph 1028.7mb - 37f
11:40pm 9 13 mph 1028.8mb - 37f
11:30pm 9 13 mph 1028.8mb - 37f
11:20pm 9 11 mph 1029mb - 37f
11:10pm 7 13 mph 1029mb - 37f
11:00pm 4 7 mph 1029mb 36f 37f
10:50pm 4 7 mph 1028.8mb - 37f
10:40pm 2 4 mph 1028.8mb - 37f
10:30pm 2 4 mph 1028.7mb - 37f
10:20pm 2 4 mph 1028.6mb - 37f
10:10pm 2 4 mph 1028.5mb - 37f
10:00pm 4
mph
1028.3mb 37f 38f
9:50pm 4 7 mph 1028.2mb - 38f
9:40pm 4 7 mph 1028.1mb - 38f
9:30pm 4 7 mph 1027.9mb - 38f
9:20pm 7
mph
1027.8mb - 38f
9:10pm 7 9 mph 1027.7mb - 38f
9:00pm 7 9 mph 1027.6mb 36f 38f
8:50pm 7 11 mph 1027.5mb - 38f
8:40pm 9 11 mph 1027.5mb - 38f
8:30pm 7 11 mph 1027.5mb - 38f
8:20pm 7 11 mph 1027.4mb - 38f
8:10pm 7 9 mph 1027.3mb - 38f
8:00pm 9 11 mph 1027.3mb 36f 39f
7:50pm 9 13 mph 1027.3mb - 39f
7:40pm 9 13 mph 1027.1mb - 38f
7:30pm 9 13 mph 1027mb - 38f
7:20pm 9 13 mph 1026.8mb - 39f
7:10pm 7 11 mph 1026.8mb - 39f
7:00pm 9 11 mph 1026.8mb 37f 39f
6:50pm 9 11 mph 1026.5mb - 39f
6:40pm 9 11 mph 1026.4mb - 39f
6:30pm 7 11 mph 1026.3mb - 39f
6:20pm 9 13 mph 1026.2mb - 40f
6:10pm 9 11 mph 1026mb - 40f
6:00pm 9 13 mph 1025.8mb 37f 40f
5:50pm 9 11 mph 1025.6mb - 40f
5:40pm 9 16 mph 1025.4mb - 40f
5:30pm 9 11 mph 1025.2mb - 40f
5:20pm 9 16 mph 1025.2mb - 41f
5:10pm 9 13 mph 1025mb - 41f
5:00pm 9 16 mph 1024.8mb 37f 41f
4:50pm 11 16 mph 1024.8mb - 41f
4:40pm 9 13 mph 1024.7mb - 42f
4:30pm 9 13 mph 1024.7mb - 42f
4:20pm 9 13 mph 1024.7mb - 42f
4:10pm 11 16 mph 1024.7mb - 42f
4:00pm 11 16 mph 1024.7mb 37f 42f
3:50pm 11 18 mph 1024.6mb - 42f
3:40pm 11 18 mph 1024.5mb - 43f
3:30pm 11 16 mph 1024.3mb - 43f
3:20pm 9 13 mph 1024.2mb - 43f
3:10pm 9 13 mph 1024.1mb - 43f
3:00pm 9 13 mph 1024mb 37f 42f
2:50pm 9 11 mph 1024mb - 42f
2:40pm 9 13 mph 1023.8mb - 42f
2:30pm 11 16 mph 1023.8mb - 42f
2:20pm 11 18 mph 1023.6mb - 42f
2:10pm 11 16 mph 1023.6mb - 43f
2:00pm 9 13 mph 1023.6mb 37f 42f
1:50pm 9 13 mph 1023.6mb - 42f
1:40pm 9 13 mph 1023.7mb - 42f
1:30pm 11 18 mph 1023.8mb - 42f
1:20pm 11 16 mph 1023.8mb - 42f
1:10pm 13 18 mph 1023.8mb - 42f
1:00pm 13 20 mph 1023.9mb 37f 42f
12:50pm 13 18 mph 1023.9mb - 42f
12:40pm 13 18 mph 1023.8mb - 42f
12:30pm 11 18 mph 1023.9mb - 42f
12:20pm 9 13 mph 1023.9mb - 42f
12:10pm 7 13 mph 1023.8mb - 41f
12:00pm 4 7 mph 1023.9mb 36f 40f
11:50am 7 9 mph 1024mb - 39f
11:40am 7 9 mph 1024.2mb - 38f
11:30am 4 7 mph 1024.2mb - 38f
11:20am 7 9 mph 1024.1mb - 37f
11:10am 7 9 mph 1024.2mb - 36f
11:00am 9 16 mph 1024mb 35f 36f
10:50am 13 18 mph 1023.7mb - 36f
10:40am 16 20 mph 1023.5mb - 36f
10:30am 13 20 mph 1023.2mb - 38f
10:20am 11 18 mph 1022.9mb - 38f
10:10am 13 20 mph 1022.5mb - 37f
10:00am 13 20 mph 1022.3mb 35f 38f
9:50am 9 11 mph 1021.8mb - 39f
9:40am 9 11 mph 1021.5mb - 39f
9:30am 7 11 mph 1021.1mb - 38f
9:20am 7 11 mph 1021mb - 38f
9:10am 4 9 mph 1020.9mb - 37f
9:00am 4 7 mph 1020.8mb 35f 37f
8:50am 4 9 mph 1020.6mb - 37f
8:40am 7 9 mph 1020.6mb - 37f
8:30am 4 11 mph 1020.5mb - 36f
8:20am 4 7 mph 1020.3mb - 36f
8:10am 4 9 mph 1020.1mb - 36f
8:00am 7 11 mph 1019.8mb 35f 35f
7:50am 4 9 mph 1019.7mb - 35f
7:40am 7 9 mph 1019.5mb - 35f
7:30am 4 9 mph 1019.5mb - 35f
7:20am 7 9 mph 1019.3mb - 35f
7:10am 4 9 mph 1019.1mb - 35f
7:00am 4 7 mph 1019.2mb 35f 35f
6:50am 4 9 mph 1019.6mb - 35f
6:40am 4 9 mph 1019.8mb - 35f
6:30am 4 7 mph 1020mb - 35f
6:20am 4 11 mph 1020mb - 35f
6:10am 4 9 mph 1019.7mb - 35f
6:00am 4 7 mph 1019.8mb 35f 34f
5:50am 4 9 mph 1019.8mb - 34f
5:40am 4 11 mph 1020mb - 34f
5:30am 7 11 mph 1019.9mb - 34f
5:20am 7 11 mph 1019.7mb - 34f
5:10am 4 11 mph 1019.6mb - 34f
5:00am 4 9 mph 1019.5mb 35f 34f
4:50am 4 9 mph 1019.2mb - 35f
4:40am 4 7 mph 1018.9mb - 34f
4:30am 2 4 mph 1019.2mb - 34f
4:20am 4
mph
1019.3mb - 34f
4:10am 4 7 mph 1019.3mb - 34f
4:00am 4 7 mph 1019.4mb 35f 34f
3:50am 4 7 mph 1019.9mb - 34f
3:40am 2 7 mph 1020mb - 34f
3:30am 4 7 mph 1020mb - 34f
3:20am 4 7 mph 1020.1mb - 34f
3:10am 4 9 mph 1020mb - 34f
3:00am 7 11 mph 1019.9mb 35f 34f
2:50am 9 13 mph 1019.9mb - 34f
2:40am 9 11 mph 1020.2mb - 34f
2:30am 4 11 mph 1020.8mb - 34f
2:20am 7 9 mph 1020.8mb - 34f
2:10am 7 11 mph 1021mb - 34f
2:00am 4 9 mph 1021.5mb 35f 34f
1:50am 2 4 mph 1021.8mb - 34f
1:40am 4
mph
1022.1mb - 34f
1:30am 4 7 mph 1022.3mb - 34f
1:20am 4 7 mph 1022.5mb - 34f
1:10am 4 9 mph 1022.6mb - 33f
1:00am 4 7 mph 1022.9mb 35f 33f
12:50am 4 7 mph 1023mb - 33f
12:40am 4 7 mph 1023.3mb - 33f
12:30am 4 7 mph 1023.3mb - 33f
12:20am 4 9 mph 1023.4mb - 33f
12:10am 4 7 mph 1023.7mb - 33f
12:00am 4 7 mph 1024mb 35f 33f
Sun 03/01 11:50pm 4 7 mph 1024.3mb - 33f
11:40pm 4 11 mph 1024.5mb - 33f
11:30pm 4 9 mph 1024.2mb - 33f
11:20pm 4 7 mph 1024mb - 33f
11:10pm 4 9 mph 1023.9mb - 33f
11:00pm 4 7 mph 1023.8mb 35f 33f